Weather Roundup
Issued by NWS Chicago, IL

Home | Current Version | Previous Version | Text Only | Print | Product List | Glossary On
Versions: 1 2 3 4 5 6 7 8 9 10 11 12 13 14 15 16 17 18 19 20 21 22 23 24 25 26 27 28 29 30 31 32 33 34 35 36 37 38 39 40 41 42 43 44 45 46 47 48 49 50
000
NZUS59 KLOT 202200
HRRLOT

CHICAGO AREA WEATHER ROUNDUP
NATIONAL WEATHER SERVICE CHICAGO/ROMEOVILLE IL
500 PM CDT SAT SEP 20 2014

NOTE: "FAIR" INDICATES FEW OR NO CLOUDS BELOW 12,000 FEET WITH NO
SIGNIFICANT WEATHER AND/OR OBSTRUCTIONS TO VISIBILITY.

* THESE STATIONS ARE NOT UNDER NWS QUALITY CONTROL. THEY ALSO MAY NOT
  REPORT WEATHER SUCH AS PRECIPITATION OR FOG.

ILZ005-006-012>014-019>023-202300-
NORTHEAST ILLINOIS

CITY           SKY/WX    TMP DP  RH WIND       PRES   REMARKS
OHARE          PTSUNNY   77  66  68 SW7       29.78F
MIDWAY         PTSUNNY   77  68  73 SW12      29.78F
AURORA         PTSUNNY   76  63  64 SW9       29.80F
LANSING*       CLOUDY    68  66  93 S6        29.81F
WAUKEGAN       PTSUNNY   71  65  81 S9        29.76F
DUPAGE AIRPORT PTSUNNY   76  65  68 S9        29.78F
WHEELING       PTSUNNY   76  65  68 SW7       29.79F
NORTHERLY IS     N/A     74  66  76 SW5         N/A
$$

WIZ051-052-058>065-066-070>072-202300-
SOUTHEAST WISCONSIN

CITY           SKY/WX    TMP DP  RH WIND       PRES   REMARKS
MILWAUKEE      PTSUNNY   74  62  66 SW15G23   29.73F
KENOSHA*       MOSUNNY   72  65  78 SW12      29.76F
RACINE*        PTSUNNY   74  64  71 SW10      29.75F
WAUKESHA       PTSUNNY   72  63  73 SW10      29.75F
$$

INZ001>003-010>013-019-020-202300-
NORTHWEST INDIANA

CITY           SKY/WX    TMP DP  RH WIND       PRES   REMARKS
GARY*          PTSUNNY   70  66  88 S8        29.82F
MICHIGAN CITY* NOT AVBL
RENSSELAER*    NOT AVBL
$$

LMZ740>746-202300-
SOUTHERN LAKE MICHIGAN

STATION/POSITION TIME  SKY/WX   TEMP WIND        PRES    VSBY
                                AIR  DIR/SP/G
                 (UTC)          (F)  (DEG/KT/KT) (MB)    (MI)
HARRISON CRIB    2100            73  240/ 14/ 22   N/A
BURNHAM HARBOR   2200            74  190/  5/ 10   N/A
CALUMET HARBOR   2100            70  190/  5/  8 1008.3F
BURNS HARBOR     NOT AVBL
MICHIGAN CITY    2100            69  190/  9/ 12   N/A
$$

ABBREVIATIONS USED IN REMARKS
   TC - TEMPERATURE IN CELSIUS
  WCI - WIND CHILL INDEX
   HX - HEAT INDEX
  VSB - VISIBILITY
$$


USA.gov is the U.S. government's official web portal to all federal, state and local government web resources and services.